Location: Aalsum
(53.3404°N, 6.0062°E)
Time: 04:13:29
(UTC+00:00)

SL-08 R/B - Pass Details

Date: 28 January 2023
Orbit: 672 x 737 km, 98.5° (Epoch: 24 March)

Event Time Altitude Azimuth Distance (km) Brightness Sun altitude
Rises 17:15:56 0° 16° (NNE) 3,158 6.4 -9.7°
Reaches altitude 10° 17:18:13 10° 19° (NNE) 2,240 5.6 -10.0°
Maximum altitude 17:23:09 73° 104° (ESE) 774 3.4 -10.7°
Drops below altitude 10° 17:28:05 10° 189° (S) 2,242 6.2 -11.4°
Sets 17:30:22 0° 192° (SSW) 3,162 7.1 -11.8°
